GLG1639 SEGU-SEQM

Flight info

Callsign GLG1639
Flight time 0h 49m
Altitude 24000
Route REGAP2 PAMIS G675 QIT
Aircraft A320/M-SDE3FGHIRWY/LB1

Departure

Time 2026-04-16 23:41
Airport José Joaquín de Olmedo International Airport (SEGU)

Arrival

Time 2026-04-17 00:30
Airport Mariscal Sucre International Airport (SEQM)
Time Latitude Longitude Altitude Speed Heading
2026-04-16 23:24 -2.14906 -79.88339 23 ft 0 kts 303°
2026-04-16 23:32 -2.14905 -79.88341 22 ft 1 kts 303°
2026-04-16 23:32 -2.14903 -79.88344 23 ft 2 kts 303°
2026-04-16 23:32 -2.14912 -79.88330 24 ft 2 kts 303°
2026-04-16 23:32 -2.14921 -79.88316 24 ft 2 kts 303°
2026-04-16 23:33 -2.14930 -79.88301 24 ft 2 kts 303°
2026-04-16 23:33 -2.14940 -79.88287 23 ft 2 kts 303°
2026-04-16 23:33 -2.14948 -79.88275 24 ft 0 kts 303°
2026-04-16 23:34 -2.14948 -79.88274 24 ft 2 kts 303°
2026-04-16 23:34 -2.14950 -79.88271 23 ft 0 kts 303°
2026-04-16 23:34 -2.14932 -79.88281 22 ft 8 kts 353°
2026-04-16 23:34 -2.14855 -79.88238 22 ft 15 kts 30°
2026-04-16 23:35 -2.14808 -79.88210 21 ft 6 kts 34°
2026-04-16 23:35 -2.14784 -79.88179 21 ft 5 kts 73°
2026-04-16 23:35 -2.14792 -79.88148 23 ft 4 kts 119°
2026-04-16 23:35 -2.14804 -79.88127 22 ft 3 kts 120°
2026-04-16 23:36 -2.14817 -79.88108 22 ft 5 kts 122°
2026-04-16 23:36 -2.14838 -79.88068 24 ft 8 kts 103°
2026-04-16 23:36 -2.14807 -79.88015 22 ft 10 kts 34°
2026-04-16 23:36 -2.14746 -79.87980 22 ft 10 kts 28°
2026-04-16 23:37 -2.14677 -79.87938 21 ft 13 kts 43°
2026-04-16 23:37 -2.14654 -79.87894 23 ft 0 kts 71°
2026-04-16 23:38 -2.14648 -79.87874 21 ft 16 kts 71°
2026-04-16 23:38 -2.14630 -79.87638 23 ft 26 kts 109°
2026-04-16 23:38 -2.15557 -79.88264 11 ft 0 kts 211°
2026-04-16 23:39 -2.15559 -79.88262 11 ft 1 kts 213°
2026-04-16 23:39 -2.15562 -79.88256 11 ft 1 kts 215°
2026-04-16 23:39 -2.15569 -79.88248 13 ft 2 kts 218°
2026-04-16 23:39 -2.15577 -79.88240 22 ft 3 kts 217°
2026-04-16 23:40 -2.15608 -79.88265 21 ft 0 kts 219°
2026-04-16 23:40 -2.15831 -79.88421 21 ft 86 kts 210°
2026-04-16 23:40 -2.16588 -79.88851 28 ft 160 kts 209°
2026-04-16 23:40 -2.17250 -79.89216 556 ft 161 kts 208°
2026-04-16 23:41 -2.18244 -79.89768 1421 ft 169 kts 210°
2026-04-16 23:41 -2.19410 -79.90199 2114 ft 194 kts 183°
2026-04-16 23:41 -2.20756 -79.89704 2696 ft 228 kts 140°
2026-04-16 23:41 -2.21577 -79.88240 3392 ft 262 kts 102°
2026-04-16 23:42 -2.21345 -79.86395 4406 ft 278 kts 65°
2026-04-16 23:42 -2.20114 -79.84898 5645 ft 283 kts 38°
2026-04-16 23:42 -2.18495 -79.83772 6884 ft 286 kts 31°
2026-04-16 23:42 -2.16800 -79.82699 8074 ft 291 kts 31°
2026-04-16 23:43 -2.15095 -79.81624 9454 ft 283 kts 32°
2026-04-16 23:43 -2.13473 -79.80586 10619 ft 274 kts 34°
2026-04-16 23:43 -2.11974 -79.79404 11345 ft 275 kts 41°
2026-04-16 23:43 -2.10561 -79.78109 12042 ft 277 kts 43°
2026-04-16 23:44 -2.09170 -79.76765 12674 ft 280 kts 44°
2026-04-16 23:44 -2.07769 -79.75400 13321 ft 284 kts 44°
2026-04-16 23:44 -2.06341 -79.74022 14232 ft 287 kts 44°
2026-04-16 23:44 -2.04864 -79.72668 15161 ft 290 kts 39°
2026-04-16 23:45 -2.03195 -79.71515 16002 ft 299 kts 30°
2026-04-16 23:45 -2.01318 -79.70436 16385 ft 323 kts 30°
2026-04-16 23:45 -1.99287 -79.69285 16728 ft 348 kts 29°
2026-04-16 23:45 -1.97108 -79.68058 16993 ft 371 kts 29°
2026-04-16 23:46 -1.94811 -79.66763 17514 ft 384 kts 30°
2026-04-16 23:46 -1.92466 -79.65435 18249 ft 390 kts 30°
2026-04-16 23:46 -1.90093 -79.64092 18925 ft 394 kts 30°
2026-04-16 23:46 -1.87700 -79.62736 19601 ft 398 kts 30°
2026-04-16 23:47 -1.85280 -79.61363 20255 ft 402 kts 30°
2026-04-16 23:47 -1.82836 -79.59975 20902 ft 406 kts 30°
2026-04-16 23:47 -1.80368 -79.58575 21543 ft 410 kts 30°
2026-04-16 23:47 -1.77911 -79.57183 22209 ft 414 kts 30°
2026-04-16 23:48 -1.75395 -79.55758 22719 ft 417 kts 30°
2026-04-16 23:48 -1.72869 -79.54325 22853 ft 417 kts 30°
2026-04-16 23:48 -1.70346 -79.52890 22886 ft 417 kts 30°
2026-04-16 23:48 -1.67824 -79.51456 22884 ft 417 kts 30°
2026-04-16 23:49 -1.65302 -79.50026 22885 ft 417 kts 30°
2026-04-16 23:49 -1.62780 -79.48594 22904 ft 417 kts 30°
2026-04-16 23:49 -1.60261 -79.47161 22904 ft 417 kts 30°
2026-04-16 23:49 -1.57743 -79.45724 22904 ft 417 kts 30°
2026-04-16 23:50 -1.55231 -79.44275 22904 ft 417 kts 30°
2026-04-16 23:50 -1.52725 -79.42818 22904 ft 417 kts 30°
2026-04-16 23:50 -1.50221 -79.41359 22951 ft 417 kts 30°
2026-04-16 23:50 -1.47711 -79.39895 22971 ft 417 kts 30°
2026-04-16 23:51 -1.45203 -79.38432 22977 ft 417 kts 30°
2026-04-16 23:51 -1.42695 -79.36970 22979 ft 417 kts 30°
2026-04-16 23:51 -1.40190 -79.35512 22981 ft 417 kts 30°
2026-04-16 23:51 -1.37681 -79.34055 22981 ft 417 kts 30°
2026-04-16 23:52 -1.35170 -79.32601 22981 ft 417 kts 30°
2026-04-16 23:52 -1.32658 -79.31149 22986 ft 417 kts 30°
2026-04-16 23:52 -1.30147 -79.29697 22986 ft 417 kts 30°
2026-04-16 23:52 -1.27639 -79.28241 22987 ft 417 kts 30°
2026-04-16 23:53 -1.25132 -79.26782 23064 ft 417 kts 30°
2026-04-16 23:53 -1.22627 -79.25321 23064 ft 417 kts 30°
2026-04-16 23:53 -1.20126 -79.23865 23064 ft 417 kts 30°
2026-04-16 23:53 -1.17618 -79.22409 23072 ft 417 kts 30°
2026-04-16 23:54 -1.15108 -79.20955 23072 ft 417 kts 30°
2026-04-16 23:54 -1.12601 -79.19497 23073 ft 417 kts 30°
2026-04-16 23:54 -1.10090 -79.18040 23070 ft 417 kts 30°
2026-04-16 23:54 -1.07576 -79.16583 23067 ft 418 kts 30°
2026-04-16 23:55 -1.05096 -79.15147 23067 ft 418 kts 30°
2026-04-16 23:55 -1.02579 -79.13691 23067 ft 418 kts 30°
2026-04-16 23:55 -1.00062 -79.12233 23129 ft 418 kts 30°
2026-04-16 23:55 -0.97546 -79.10772 23130 ft 418 kts 30°
2026-04-16 23:56 -0.95029 -79.09309 23131 ft 418 kts 30°
2026-04-16 23:56 -0.92517 -79.07848 23132 ft 418 kts 30°
2026-04-16 23:56 -0.90001 -79.06384 23136 ft 419 kts 30°
2026-04-16 23:56 -0.87484 -79.04918 23136 ft 419 kts 30°
2026-04-16 23:57 -0.84962 -79.03454 23134 ft 419 kts 30°
2026-04-16 23:57 -0.82437 -79.01993 23133 ft 420 kts 30°
2026-04-16 23:57 -0.79944 -79.00475 23131 ft 420 kts 34°
2026-04-16 23:57 -0.77581 -78.98757 23133 ft 420 kts 36°
2026-04-16 23:58 -0.75218 -78.97034 23180 ft 421 kts 36°
2026-04-16 23:58 -0.72849 -78.95314 23175 ft 421 kts 36°
2026-04-16 23:58 -0.70483 -78.93598 23175 ft 421 kts 35°
2026-04-16 23:58 -0.68109 -78.91878 23176 ft 422 kts 36°
2026-04-16 23:59 -0.65737 -78.90154 23178 ft 422 kts 35°
2026-04-16 23:59 -0.63363 -78.88429 23169 ft 422 kts 36°
2026-04-16 23:59 -0.60993 -78.86704 22422 ft 422 kts 35°
2026-04-16 23:59 -0.58619 -78.84975 21532 ft 422 kts 35°
2026-04-17 00:00 -0.56254 -78.83256 20873 ft 417 kts 35°
2026-04-17 00:00 -0.53963 -78.81512 20232 ft 412 kts 40°
2026-04-17 00:00 -0.51893 -78.79551 19587 ft 409 kts 47°
2026-04-17 00:00 -0.50136 -78.77366 19158 ft 399 kts 54°
2026-04-17 00:01 -0.48708 -78.75013 18681 ft 385 kts 63°
2026-04-17 00:01 -0.47645 -78.72678 18525 ft 355 kts 69°
2026-04-17 00:01 -0.46860 -78.70435 18283 ft 332 kts 73°
2026-04-17 00:01 -0.46197 -78.68284 18051 ft 313 kts 72°
2026-04-17 00:02 -0.45574 -78.66268 17894 ft 297 kts 72°
2026-04-17 00:02 -0.44968 -78.64336 17772 ft 286 kts 71°
2026-04-17 00:02 -0.44312 -78.62498 17640 ft 276 kts 68°
2026-04-17 00:02 -0.43607 -78.60746 17522 ft 267 kts 66°
2026-04-17 00:03 -0.42862 -78.59078 17408 ft 257 kts 64°
2026-04-17 00:03 -0.42108 -78.57523 17164 ft 244 kts 61°
2026-04-17 00:03 -0.41324 -78.56038 16715 ft 240 kts 60°
2026-04-17 00:03 -0.40455 -78.54618 16256 ft 239 kts 54°
2026-04-17 00:04 -0.39465 -78.53323 15817 ft 237 kts 48°
2026-04-17 00:04 -0.38369 -78.52109 15397 ft 234 kts 44°
2026-04-17 00:04 -0.37197 -78.50996 14972 ft 231 kts 39°
2026-04-17 00:04 -0.35950 -78.49995 14550 ft 229 kts 34°
2026-04-17 00:05 -0.34632 -78.49113 14160 ft 227 kts 30°
2026-04-17 00:05 -0.33250 -78.48367 13658 ft 226 kts 24°
2026-04-17 00:05 -0.31797 -78.47741 13114 ft 229 kts 19°
2026-04-17 00:05 -0.30283 -78.47234 12584 ft 230 kts 15°
2026-04-17 00:06 -0.28764 -78.46866 12203 ft 220 kts 11°
2026-04-17 00:06 -0.27273 -78.46577 12041 ft 217 kts 10°
2026-04-17 00:06 -0.25810 -78.46215 11842 ft 218 kts 19°
2026-04-17 00:06 -0.24513 -78.45473 11487 ft 212 kts 37°
2026-04-17 00:07 -0.23521 -78.44412 11205 ft 207 kts 54°
2026-04-17 00:07 -0.22889 -78.43142 10915 ft 203 kts 70°
2026-04-17 00:07 -0.22426 -78.41816 10628 ft 201 kts 69°
2026-04-17 00:07 -0.21956 -78.40510 10339 ft 198 kts 69°
2026-04-17 00:08 -0.21488 -78.39226 10038 ft 194 kts 69°
2026-04-17 00:08 -0.21042 -78.37993 9752 ft 183 kts 69°
2026-04-17 00:08 -0.20599 -78.36848 9492 ft 172 kts 60°
2026-04-17 00:08 -0.19869 -78.35942 9242 ft 166 kts 39°
2026-04-17 00:09 -0.18880 -78.35379 9003 ft 163 kts 18°
2026-04-17 00:09 -0.17789 -78.35205 8753 ft 161 kts 358°
2026-04-17 00:09 -0.16681 -78.35261 8511 ft 158 kts 358°
2026-04-17 00:09 -0.15588 -78.35307 8294 ft 158 kts 358°
2026-04-17 00:10 -0.14495 -78.35353 8035 ft 157 kts 358°
2026-04-17 00:10 -0.13419 -78.35400 7899 ft 148 kts 359°
2026-04-17 00:10 -0.12532 -78.35435 7853 ft 115 kts 357°
2026-04-17 00:10 -0.11465 -78.35475 8133 ft 177 kts 359°
2026-04-17 00:11 -0.10206 -78.35484 9442 ft 184 kts
2026-04-17 00:11 -0.08925 -78.35480 10617 ft 182 kts 359°
2026-04-17 00:11 -0.07668 -78.35530 11326 ft 183 kts 356°
2026-04-17 00:11 -0.06349 -78.35611 11677 ft 204 kts 356°
2026-04-17 00:12 -0.04854 -78.35704 11976 ft 227 kts 356°
2026-04-17 00:12 -0.03216 -78.35795 12512 ft 243 kts 357°
2026-04-17 00:12 -0.01504 -78.35881 13266 ft 249 kts 356°
2026-04-17 00:12 0.00241 -78.35967 14163 ft 253 kts 356°
2026-04-17 00:13 0.02005 -78.36139 15048 ft 257 kts 342°
2026-04-17 00:13 0.03580 -78.36999 15711 ft 263 kts 319°
2026-04-17 00:13 0.04847 -78.38311 15937 ft 262 kts 312°
2026-04-17 00:13 0.06106 -78.39621 16013 ft 261 kts 314°
2026-04-17 00:14 0.07396 -78.40901 15984 ft 261 kts 315°
2026-04-17 00:14 0.08703 -78.42167 15987 ft 262 kts 315°
2026-04-17 00:14 0.09961 -78.43478 15987 ft 261 kts 306°
2026-04-17 00:14 0.10870 -78.45036 15987 ft 259 kts 292°
2026-04-17 00:15 0.11590 -78.46703 15990 ft 271 kts 292°
2026-04-17 00:15 0.12366 -78.48505 15990 ft 289 kts 293°
2026-04-17 00:15 0.13169 -78.50366 15986 ft 294 kts 293°
2026-04-17 00:15 0.13981 -78.52248 15987 ft 296 kts 293°
2026-04-17 00:16 0.14741 -78.54159 15988 ft 296 kts 284°
2026-04-17 00:16 0.14847 -78.56202 15991 ft 296 kts 264°
2026-04-17 00:16 0.14628 -78.58247 15989 ft 296 kts 263°
2026-04-17 00:16 0.14374 -78.60282 15990 ft 296 kts 263°
2026-04-17 00:17 0.14308 -78.62321 15986 ft 294 kts 279°
2026-04-17 00:17 0.15010 -78.64227 15975 ft 295 kts 303°
2026-04-17 00:17 0.16433 -78.65688 15976 ft 296 kts 326°
2026-04-17 00:17 0.18333 -78.66459 15976 ft 298 kts 350°
2026-04-17 00:18 0.20397 -78.66402 15977 ft 300 kts 14°
2026-04-17 00:18 0.22274 -78.65515 15978 ft 301 kts 38°
2026-04-17 00:18 0.23631 -78.63931 15979 ft 303 kts 62°
2026-04-17 00:18 0.24225 -78.61931 15979 ft 303 kts 86°
2026-04-17 00:19 0.23964 -78.59857 15980 ft 303 kts 110°
2026-04-17 00:19 0.22915 -78.58105 15978 ft 289 kts 135°
2026-04-17 00:19 0.21357 -78.56939 15983 ft 273 kts 151°
2026-04-17 00:19 0.19738 -78.56055 15978 ft 259 kts 154°
2026-04-17 00:20 0.18147 -78.55255 15978 ft 254 kts 155°
2026-04-17 00:20 0.16564 -78.54478 15979 ft 253 kts 155°
2026-04-17 00:20 0.14986 -78.53703 15980 ft 253 kts 155°
2026-04-17 00:20 0.13401 -78.52928 15852 ft 255 kts 155°
2026-04-17 00:21 0.11876 -78.52200 15715 ft 234 kts 156°
2026-04-17 00:21 0.10440 -78.51519 15665 ft 222 kts 156°
2026-04-17 00:21 0.09057 -78.50862 15621 ft 224 kts 155°
2026-04-17 00:21 0.07636 -78.50184 15568 ft 223 kts 155°
2026-04-17 00:22 0.04858 -78.48856 15476 ft 223 kts 155°
2026-04-17 00:22 0.03457 -78.48186 15375 ft 224 kts 155°
2026-04-17 00:22 0.02057 -78.47512 15109 ft 223 kts 155°
2026-04-17 00:23 0.00667 -78.46843 14813 ft 221 kts 156°
2026-04-17 00:23 -0.00731 -78.46169 14574 ft 220 kts 155°
2026-04-17 00:23 -0.02118 -78.45578 14263 ft 219 kts 161°
2026-04-17 00:23 -0.03588 -78.45124 13924 ft 219 kts 167°
2026-04-17 00:24 -0.05059 -78.44833 13589 ft 218 kts 172°
2026-04-17 00:24 -0.06557 -78.44672 13295 ft 217 kts 175°
2026-04-17 00:24 -0.08063 -78.44523 13007 ft 219 kts 174°
2026-04-17 00:24 -0.09584 -78.44371 12683 ft 220 kts 174°
2026-04-17 00:25 -0.11107 -78.44217 12304 ft 219 kts 174°
2026-04-17 00:25 -0.12616 -78.44063 11955 ft 215 kts 174°
2026-04-17 00:25 -0.14085 -78.43914 11647 ft 209 kts 174°
2026-04-17 00:25 -0.15499 -78.43686 11366 ft 204 kts 164°
2026-04-17 00:26 -0.16795 -78.43152 11090 ft 201 kts 150°
2026-04-17 00:26 -0.17920 -78.42344 10808 ft 198 kts 137°
2026-04-17 00:26 -0.18941 -78.41428 10523 ft 196 kts 138°
2026-04-17 00:26 -0.19961 -78.40524 10241 ft 195 kts 136°
2026-04-17 00:27 -0.20721 -78.39437 9929 ft 187 kts 111°
2026-04-17 00:27 -0.20942 -78.38226 9682 ft 172 kts 88°
2026-04-17 00:27 -0.20691 -78.37084 9413 ft 166 kts 65°
2026-04-17 00:27 -0.20057 -78.36140 9167 ft 163 kts 45°
2026-04-17 00:28 -0.19143 -78.35491 8936 ft 161 kts 24°
2026-04-17 00:28 -0.18079 -78.35211 8683 ft 159 kts
2026-04-17 00:28 -0.16983 -78.35245 8468 ft 156 kts 357°
2026-04-17 00:28 -0.15894 -78.35296 8289 ft 157 kts 358°
2026-04-17 00:29 -0.15174 -78.35328 8171 ft 156 kts 359°
2026-04-17 00:29 -0.14095 -78.35375 7952 ft 155 kts 358°
2026-04-17 00:29 -0.13053 -78.35423 7879 ft 138 kts
2026-04-17 00:29 -0.12284 -78.35448 7842 ft 84 kts 357°
2026-04-17 00:30 -0.11882 -78.35469 7825 ft 35 kts 353°
2026-04-17 00:30 -0.11663 -78.35553 7822 ft 31 kts 327°
2026-04-17 00:30 -0.11653 -78.35643 7823 ft 1 kts 171°
2026-04-17 00:30 -0.11693 -78.35640 7824 ft 22 kts 176°
2026-04-17 00:31 -0.11883 -78.35634 7828 ft 29 kts 178°
2026-04-17 00:31 -0.12077 -78.35626 7834 ft 25 kts 177°
2026-04-17 00:31 -0.12218 -78.35621 7836 ft 19 kts 176°
2026-04-17 00:31 -0.12329 -78.35624 7837 ft 14 kts 202°
2026-04-17 00:32 -0.12359 -78.35701 7840 ft 14 kts 267°
2026-04-17 00:32 -0.12364 -78.35811 7841 ft 16 kts 267°
2026-04-17 00:32 -0.12368 -78.35897 7843 ft 6 kts 268°
2026-04-17 00:32 -0.12368 -78.35912 7843 ft 0 kts 267°